< < Back
Terminal Aerodrome Forecast


Current Version              Previous Versions:   1  2  3  4  5  6  7  8  9  

Terminal Aerodrome Forecast

405
FTUS44 KMRX 310528
TAFCHA
TAF
KCHA 310528Z 3106/0106 VRB03KT P6SM BKN050
     FM310800 00000KT P6SM BKN035
     FM311000 00000KT P6SM OVC025
     FM311500 00000KT P6SM BKN035
     FM311800 04004KT P6SM SCT040 BKN150
     FM010100 02003KT P6SM FEW050 SCT250=

Latest METAR

657
SAUS80 KWBC 312300
MTRCHA
METAR KCHA 312253Z 31006KT 10SM FEW046 FEW075 SCT250 29/18 A3008 RMK AO2
SLP176 T02890183


USA.gov is the U.S. government's official web portal to all federal, state and local government web resources and services.